TimeCEST,TemperatureF,Dew PointF,Humidity,Sea Level PressureIn,VisibilityMPH,Wind Direction,Wind SpeedMPH,Gust SpeedMPH,PrecipitationIn,Events,Conditions,WindDirDegrees,DateUTC
12:20 AM,28.4,26.6,93,30.12,6.2,ENE,3.5,-,N/A,,Unknown,70,2013-10-03 22:20:00
12:50 AM,28.4,26.6,93,30.12,6.2,Calm,Calm,-,N/A,,Unknown,0,2013-10-03 22:50:00
1:20 AM,28.4,26.6,93,30.12,6.2,SSE,3.5,-,N/A,,Unknown,150,2013-10-03 23:20:00
1:50 AM,28.4,26.6,93,30.09,6.2,ESE,3.5,-,N/A,,Unknown,120,2013-10-03 23:50:00
2:20 AM,28.4,26.6,93,30.09,6.2,ESE,3.5,-,N/A,,Unknown,110,2013-10-04 00:20:00
2:50 AM,30.2,26.6,86,30.09,6.2,Variable,3.5,-,N/A,,Unknown,0,2013-10-04 00:50:00
3:20 AM,30.2,26.6,86,30.09,6.2,Variable,2.3,-,N/A,,Unknown,0,2013-10-04 01:20:00
3:50 AM,30.2,26.6,86,30.09,6.2,SE,4.6,-,N/A,,Unknown,130,2013-10-04 01:50:00
4:20 AM,28.4,26.6,93,30.06,6.2,Calm,Calm,-,N/A,,Unknown,0,2013-10-04 02:20:00
4:50 AM,26.6,24.8,93,30.06,6.2,Calm,Calm,-,N/A,,Unknown,0,2013-10-04 02:50:00
5:20 AM,26.6,24.8,93,30.06,6.2,Calm,Calm,-,N/A,,Unknown,0,2013-10-04 03:20:00
6:20 AM,28.4,26.6,93,30.04,-9999.0,Variable,2.3,-,N/A,,Clear,0,2013-10-04 04:20:00
6:50 AM,30.2,26.6,86,30.04,-9999.0,Variable,4.6,16.1,N/A,,Clear,0,2013-10-04 04:50:00
7:20 AM,41.0,26.6,57,30.04,-9999.0,South,9.2,-,N/A,,Clear,190,2013-10-04 05:20:00
8:20 AM,39.2,30.2,70,30.01,-9999.0,SSE,10.4,-,N/A,,Clear,160,2013-10-04 06:20:00
8:50 AM,41.0,30.2,65,30.01,-9999.0,South,10.4,-,N/A,,Clear,170,2013-10-04 06:50:00
9:20 AM,41.0,30.2,65,30.01,6.2,SSE,11.5,-,N/A,,Mostly Cloudy,160,2013-10-04 07:20:00
9:50 AM,41.0,30.2,65,30.01,6.2,SSE,10.4,-,N/A,,Mostly Cloudy,160,2013-10-04 07:50:00
10:20 AM,41.0,30.2,65,30.01,6.2,SSE,10.4,-,N/A,,Scattered Clouds,150,2013-10-04 08:20:00
10:50 AM,41.0,32.0,70,29.98,6.2,SE,15.0,-,N/A,,Partly Cloudy,130,2013-10-04 08:50:00
11:20 AM,41.0,32.0,70,29.98,6.2,SE,12.7,-,N/A,,Mostly Cloudy,140,2013-10-04 09:20:00
11:50 AM,42.8,30.2,61,29.95,6.2,SE,9.2,-,N/A,,Mostly Cloudy,140,2013-10-04 09:50:00
12:50 PM,44.6,30.2,57,29.95,-9999.0,SSE,8.1,-,N/A,,Clear,150,2013-10-04 10:50:00
1:20 PM,46.4,30.2,53,29.92,-9999.0,South,9.2,-,N/A,,Clear,180,2013-10-04 11:20:00
1:50 PM,44.6,32.0,61,29.92,-9999.0,SSE,12.7,-,N/A,,Clear,150,2013-10-04 11:50:00
2:20 PM,44.6,30.2,57,29.92,-9999.0,SSE,10.4,25.3,N/A,,Clear,160,2013-10-04 12:20:00
2:50 PM,44.6,32.0,61,29.89,-9999.0,SSE,11.5,25.3,N/A,,Clear,150,2013-10-04 12:50:00
3:20 PM,44.6,32.0,61,29.89,-9999.0,SE,13.8,-,N/A,,Clear,130,2013-10-04 13:20:00
3:50 PM,46.4,30.2,53,29.86,-9999.0,SSE,6.9,-,N/A,,Clear,150,2013-10-04 13:50:00
4:20 PM,46.4,30.2,53,29.86,6.2,South,9.2,-,N/A,Rain,Light Rain,170,2013-10-04 14:20:00
4:50 PM,46.4,30.2,53,29.86,6.2,SSE,12.7,-,N/A,,Partly Cloudy,150,2013-10-04 14:50:00
5:20 PM,46.4,32.0,57,29.83,6.2,SSW,17.3,29.9,N/A,,Partly Cloudy,210,2013-10-04 15:20:00
5:50 PM,46.4,30.2,53,29.80,6.2,South,20.7,36.8,N/A,,Partly Cloudy,190,2013-10-04 15:50:00
6:50 PM,44.6,33.8,66,29.83,6.2,South,6.9,-,N/A,,Mostly Cloudy,190,2013-10-04 16:50:00
7:20 PM,42.8,33.8,70,29.83,6.2,Variable,10.4,21.9,N/A,,Mostly Cloudy,0,2013-10-04 17:20:00
7:50 PM,42.8,35.6,76,29.83,6.2,SSW,12.7,31.1,N/A,,Mostly Cloudy,210,2013-10-04 17:50:00
8:20 PM,42.8,35.6,76,29.83,6.2,South,10.4,26.5,N/A,,Mostly Cloudy,190,2013-10-04 18:20:00
8:50 PM,42.8,35.6,76,29.83,6.2,SSW,9.2,21.9,N/A,,Overcast,210,2013-10-04 18:50:00
9:20 PM,42.8,35.6,76,29.83,6.2,Calm,Calm,-,N/A,,Overcast,0,2013-10-04 19:20:00
9:50 PM,42.8,35.6,76,29.80,6.2,Calm,Calm,-,N/A,,Overcast,0,2013-10-04 19:50:00
10:20 PM,42.8,37.4,81,29.80,6.2,SSE,8.1,-,N/A,,Overcast,160,2013-10-04 20:20:00
10:50 PM,42.8,37.4,81,29.80,6.2,South,4.6,-,N/A,,Overcast,180,2013-10-04 20:50:00
11:20 PM,42.8,37.4,81,29.80,6.2,SW,5.8,-,N/A,,Overcast,220,2013-10-04 21:20:00
11:50 PM,42.8,37.4,81,29.77,6.2,SSW,6.9,-,N/A,,Overcast,210,2013-10-04 21:50:00